Date,TemperatureHighF,TemperatureAvgF,TemperatureLowF,DewpointHighF,DewpointAvgF,DewpointLowF,HumidityHigh,HumidityAvg,HumidityLow,PressureMaxIn,PressureMinIn,WindSpeedMaxMPH,WindSpeedAvgMPH,GustSpeedMaxMPH,PrecipitationSumIn
2012-1-1,39.5,32.3,25.3,38.7,29.0,15.2,100,88,65,29.86,29.48,15,10,19,0.18
2012-1-2,25.0,19.4,13.1,15.6,8.2,1.8,71,61,50,30.33,29.87,16,13,24,0.00
2012-1-3,23.5,16.5,11.1,14.3,7.5,3.1,78,67,54,30.33,29.91,15,8,18,0.00
2012-1-4,30.6,25.3,17.8,22.4,18.0,12.2,84,74,68,29.93,29.83,10,4,15,0.00
2012-1-5,45.4,33.0,24.2,32.9,25.9,20.1,85,75,60,29.92,29.44,12,4,14,0.00
2012-1-6,46.1,42.3,34.6,33.2,31.0,27.8,77,64,54,29.64,29.45,9,5,12,0.00
2012-1-7,36.0,32.0,21.8,28.2,23.0,16.0,78,69,59,30.20,29.64,9,5,12,0.00
2012-1-8,37.9,29.0,18.6,27.3,22.6,15.3,90,77,64,30.23,30.10,11,3,16,0.00
2012-1-9,44.1,37.0,31.3,28.9,27.3,24.8,79,68,53,30.09,29.69,14,8,22,0.00
2012-1-10,42.6,34.7,23.5,35.2,29.9,22.0,96,83,68,29.94,29.67,13,5,14,0.00
2012-1-11,46.1,34.2,26.1,35.8,30.8,25.1,100,88,61,29.67,29.49,7,2,10,0.00
2012-1-12,35.0,26.9,21.4,34.6,23.7,17.0,99,88,75,29.51,29.41,15,10,19,0.02
2012-1-13,22.5,20.2,15.7,19.2,12.5,4.4,88,72,60,29.99,29.47,16,10,22,0.00
2012-1-14,18.1,16.0,13.5,13.4,9.7,4.6,86,76,61,30.18,29.98,7,3,11,0.00
2012-1-15,33.2,23.3,7.4,28.5,17.5,3.3,88,78,67,30.27,29.95,23,9,32,0.00
2012-1-16,35.5,32.8,27.8,29.7,26.9,23.7,86,79,71,29.94,29.69,21,7,29,0.00
2012-1-17,32.2,23.1,15.2,25.5,15.8,4.9,92,74,60,30.14,29.71,17,13,27,0.00
2012-1-18,24.8,16.0,6.0,15.0,6.4,0.4,83,66,48,30.20,29.64,19,8,22,0.00
2012-1-19,21.4,6.6,-1.4,19.4,-5.2,-13.5,93,58,45,30.17,29.59,15,10,24,0.00
2012-1-20,10.0,3.4,-3.5,3.0,-7.7,-14.4,81,60,40,30.24,30.16,8,4,10,0.00
2012-1-21,27.5,12.8,3.9,21.3,2.1,-8.6,87,63,44,30.27,30.06,11,2,14,0.00
2012-1-22,36.2,30.9,27.5,36.2,28.8,20.1,100,92,73,30.07,29.52,20,14,26,0.04
2012-1-23,39.5,33.2,26.4,39.5,32.4,19.7,100,97,75,29.68,29.20,12,8,24,0.33
2012-1-24,30.1,25.4,16.7,21.7,18.4,14.7,93,75,63,30.29,29.70,12,6,17,0.00
2012-1-25,35.0,26.9,14.9,32.9,23.3,12.7,94,86,69,30.32,30.00,11,4,14,0.00
2012-1-26,35.2,33.2,30.7,33.6,31.0,28.9,98,92,85,30.00,29.58,15,6,17,0.00
2012-1-27,38.9,34.0,29.7,30.4,23.9,17.9,93,68,43,29.79,29.57,12,6,14,0.00
2012-1-28,32.1,26.3,21.4,31.9,20.0,10.9,100,78,56,29.90,29.63,14,8,20,0.07
2012-1-29,24.7,19.5,12.1,13.6,9.6,5.4,74,65,53,30.16,29.89,10,4,12,0.00
2012-1-30,35.0,23.6,8.4,31.7,20.1,3.5,98,86,73,30.15,29.74,12,4,16,0.10
2012-1-31,47.1,35.4,18.9,39.2,30.9,17.5,100,85,68,29.75,29.57,9,4,12,0.00
2012-2-1,38.6,34.6,29.0,32.0,28.8,26.1,92,79,72,30.14,29.75,8,2,10,0.00
2012-2-2,37.2,33.2,30.0,32.2,29.7,28.0,92,87,81,30.37,30.12,6,1,8,0.00
2012-2-3,38.2,32.3,24.1,30.6,27.6,22.7,96,83,63,30.47,30.37,4,1,7,0.00
2012-2-4,44.6,32.7,22.4,29.3,25.9,21.4,98,78,48,30.38,30.12,11,3,15,0.00
2012-2-5,35.5,32.5,30.9,27.6,26.0,24.4,85,77,68,30.29,30.05,10,5,17,0.00
2012-2-6,38.8,32.7,27.3,29.0,26.5,23.4,87,78,66,30.18,29.96,13,7,19,0.00
2012-2-7,32.1,23.8,14.6,26.3,14.9,10.8,88,69,52,30.44,30.19,14,7,19,0.00
2012-2-8,34.7,24.7,15.1,14.0,5.5,-0.9,87,49,23,30.40,30.13,9,5,16,0.00
2012-2-9,37.0,28.4,20.6,19.7,11.4,5.9,72,50,31,30.13,29.89,12,8,20,0.00
2012-2-10,28.5,17.6,10.5,24.6,10.8,0.5,94,75,60,30.23,29.85,18,10,22,0.02
2012-2-11,17.5,13.7,9.3,5.0,2.3,0.4,72,60,48,30.30,30.17,12,9,18,0.00
2012-2-12,31.3,20.4,10.4,8.1,3.1,-1.9,63,48,31,30.21,30.05,11,7,18,0.00
2012-2-13,31.9,25.8,16.9,27.2,11.5,1.8,95,57,34,30.05,29.78,10,6,13,0.00
2012-2-14,34.1,30.7,28.1,27.8,26.9,25.4,95,86,72,29.89,29.73,7,3,9,0.00
2012-2-15,39.5,34.7,32.4,35.5,30.7,26.9,97,85,70,29.99,29.89,9,5,11,0.00
2012-2-16,43.1,35.9,30.6,36.6,28.1,20.1,100,76,40,29.97,29.88,13,5,16,0.00
2012-2-17,39.5,32.4,26.0,31.1,24.9,20.4,97,75,48,30.03,29.93,12,5,15,0.02
2012-2-18,32.7,25.9,19.9,23.0,17.8,15.0,91,72,50,30.20,29.98,10,4,15,0.00
2012-2-19,39.1,27.8,16.5,26.1,19.0,13.6,92,72,40,30.19,30.10,6,2,7,0.00
2012-2-20,39.3,31.6,21.1,29.6,23.9,17.8,88,74,50,30.23,29.88,16,6,19,0.00
2012-2-21,36.8,35.4,33.5,34.7,31.4,26.6,97,85,72,29.87,29.42,15,9,19,0.03
2012-2-22,37.8,33.1,29.0,26.9,22.7,20.9,73,66,55,29.43,29.31,14,7,20,0.00
2012-2-23,36.9,30.8,25.4,26.9,21.6,18.8,85,69,50,29.63,29.39,6,2,6,0.00
2012-2-24,33.2,30.8,26.9,29.2,24.4,17.5,91,77,65,29.78,29.52,12,7,14,0.00
2012-2-25,31.8,26.5,22.1,20.5,16.7,13.9,86,67,50,30.24,29.78,10,5,17,0.00
2012-2-26,39.1,31.0,18.9,33.8,24.5,15.3,88,77,63,30.26,29.79,22,11,33,0.00
2012-2-27,38.2,32.4,23.9,24.6,21.2,18.3,79,64,46,30.43,29.82,12,7,22,0.00
2012-2-28,35.8,31.5,21.6,32.1,25.8,17.5,100,80,58,30.43,29.99,10,5,13,0.03
2012-2-29,37.9,34.4,32.1,37.1,33.6,32.1,100,97,88,29.98,29.34,19,8,24,1.01
2012-3-1,35.0,32.1,29.5,32.8,30.1,27.6,100,93,75,29.79,29.48,9,3,13,0.00
2012-3-2,36.0,33.0,31.3,32.2,31.0,29.5,100,92,81,29.77,29.33,11,3,11,0.16
2012-3-3,31.6,27.5,18.3,31.6,26.4,15.1,100,96,87,29.77,29.32,11,3,16,0.10
2012-3-4,21.4,18.6,12.1,16.0,14.1,7.9,90,82,74,30.03,29.77,10,4,10,0.00
2012-3-5,31.8,20.2,8.1,26.3,12.8,4.0,85,73,55,30.28,30.03,13,6,17,0.00
2012-3-6,48.0,38.7,32.1,37.8,32.5,25.5,85,78,65,30.15,29.71,24,15,30,0.00
2012-3-7,54.5,45.7,39.3,52.5,40.2,35.4,100,81,68,29.74,29.55,17,10,18,0.18
2012-3-8,39.2,35.1,31.0,37.2,24.0,14.9,95,66,38,30.01,29.66,13,8,19,0.00
2012-3-9,30.9,26.8,22.7,20.9,9.1,0.1,66,48,27,30.49,30.02,17,8,22,0.00
2012-3-10,57.5,41.9,28.4,33.6,27.0,9.5,77,56,39,30.45,29.91,28,13,31,0.00
2012-3-11,64.7,51.3,41.3,38.9,33.8,31.8,77,52,33,30.05,29.98,15,8,17,0.00
2012-3-12,48.5,44.9,41.3,48.5,43.6,34.1,100,96,70,29.97,29.61,17,7,19,0.69
2012-3-13,59.8,49.1,36.9,45.2,33.5,21.6,87,60,23,30.00,29.69,13,7,19,0.00
2012-3-14,54.4,45.6,33.1,50.8,40.1,27.9,94,82,66,29.98,29.77,13,5,17,0.00
2012-3-15,63.1,52.5,43.1,50.9,42.7,30.5,98,71,50,30.01,29.82,10,3,12,0.00
2012-3-16,61.3,46.0,33.7,46.3,35.5,24.7,100,70,42,30.05,29.97,7,3,11,0.00
2012-3-17,63.5,53.3,40.9,53.5,48.2,40.9,100,84,66,29.97,29.89,20,9,24,0.00
2012-3-18,63.9,54.5,42.8,53.2,48.4,42.0,97,80,65,29.95,29.88,17,8,19,0.00
2012-3-19,62.0,54.3,47.9,57.9,51.0,45.7,100,89,76,29.93,29.85,14,7,16,0.00
2012-3-20,66.8,57.4,46.2,53.6,49.9,44.9,100,77,61,29.97,29.87,23,10,29,0.00
2012-3-21,73.9,59.4,46.1,57.3,50.2,42.7,89,73,52,30.01,29.94,18,6,20,0.00
2012-3-22,63.7,55.4,47.0,54.9,51.4,45.9,99,87,67,30.13,30.00,16,8,21,0.06
2012-3-23,58.7,51.1,47.0,57.6,50.5,45.9,100,98,87,30.03,29.83,11,4,12,0.05
2012-3-24,53.1,47.8,44.8,48.2,43.2,39.1,100,85,70,29.91,29.81,11,4,12,0.00
2012-3-25,51.9,43.5,30.9,46.5,36.9,22.6,90,78,70,30.27,29.88,15,7,21,0.00
2012-3-26,36.8,32.2,27.0,28.5,22.3,19.5,74,67,51,30.46,30.26,12,7,15,0.00
2012-3-27,56.3,42.0,36.0,47.6,32.0,26.1,84,68,57,30.24,29.53,29,17,41,0.00
2012-3-28,61.2,48.4,38.8,45.1,36.1,30.5,77,63,49,30.06,29.52,17,9,22,0.00
2012-3-29,38.6,36.2,32.2,31.8,28.0,25.5,83,72,61,30.18,30.00,11,6,16,0.00
2012-3-30,37.6,34.9,32.4,33.6,32.4,30.0,100,91,79,30.00,29.85,11,5,14,0.47
2012-3-31,39.6,36.7,34.1,35.2,32.8,31.1,93,86,78,30.00,29.75,13,6,14,0.00
2012-4-1,51.6,43.2,36.9,42.4,39.0,35.1,98,86,64,29.86,29.70,9,3,13,0.00
2012-4-2,48.5,41.1,36.2,38.5,36.3,33.4,99,84,63,30.02,29.87,10,6,12,0.00
2012-4-3,54.8,45.6,34.1,42.8,39.0,33.3,97,79,58,29.98,29.84,10,4,15,0.11
2012-4-4,49.9,42.1,32.9,37.2,31.4,27.1,100,68,44,30.05,29.95,10,4,13,0.00
2012-4-5,42.3,36.2,30.4,30.4,27.1,23.3,87,70,50,30.21,30.04,11,6,16,0.00
2012-4-6,49.8,37.3,25.0,37.3,28.6,23.3,96,72,44,30.33,30.19,6,2,7,0.00
2012-4-7,51.1,40.2,25.6,43.2,31.9,24.1,95,74,46,30.26,29.99,12,5,15,0.05
2012-4-8,58.3,48.7,40.8,46.8,31.5,23.5,98,56,28,30.07,29.94,16,7,21,0.00
2012-4-9,53.1,43.0,30.1,33.2,25.5,19.0,91,53,27,29.95,29.81,16,8,20,0.00
2012-4-10,43.8,37.6,33.7,25.4,22.7,20.3,67,55,43,30.08,29.92,13,10,20,0.00
2012-4-11,46.4,38.7,27.6,33.0,28.4,22.2,94,67,51,30.25,30.08,10,5,14,0.00
2012-4-12,45.4,35.4,24.1,37.0,30.2,23.1,97,83,61,30.22,30.16,8,3,12,0.00
2012-4-13,51.7,42.0,25.3,39.0,33.1,24.8,100,73,49,30.19,29.89,13,6,14,0.00
2012-4-14,64.2,53.1,43.9,51.6,46.2,35.4,98,78,59,29.89,29.69,18,9,26,0.00
2012-4-15,58.0,50.5,46.0,58.0,50.0,45.9,100,98,91,29.70,29.44,24,7,26,0.18
2012-4-16,58.3,46.2,33.2,58.3,40.4,22.3,100,81,57,30.18,29.33,25,14,32,0.06
2012-4-17,37.6,33.6,30.0,31.2,25.2,20.7,88,71,61,30.41,30.18,11,6,16,0.00
2012-4-18,58.4,43.9,33.1,49.6,39.3,30.9,100,84,62,30.30,29.82,24,9,37,0.10
2012-4-19,47.6,40.5,34.9,42.7,35.4,32.9,99,82,68,30.07,29.92,12,6,15,0.39
2012-4-20,47.1,39.4,34.3,38.8,33.6,26.7,99,81,54,30.06,29.81,15,10,24,0.18
2012-4-21,46.1,39.1,30.3,35.1,28.0,19.6,96,67,35,30.10,30.04,9,4,11,0.00
2012-4-22,51.6,41.7,28.1,34.4,25.6,19.0,94,56,29,30.19,30.08,14,4,16,0.00
2012-4-23,56.6,45.7,34.6,28.6,21.0,14.5,75,41,20,30.13,29.76,15,7,17,0.00
2012-4-24,58.9,47.6,36.9,30.5,26.4,20.3,71,45,27,29.76,29.65,10,5,14,0.00
2012-4-25,52.5,42.3,30.0,43.0,33.9,27.2,92,74,48,29.80,29.71,7,2,8,0.07
2012-4-26,47.6,42.0,28.7,42.0,31.5,21.7,96,69,38,30.19,29.71,18,7,22,0.02
2012-4-27,48.5,37.5,25.6,32.8,24.8,15.4,96,64,27,30.28,30.20,9,3,12,0.00
2012-4-28,47.0,40.1,29.4,32.3,29.5,25.3,93,67,45,30.30,30.20,11,5,15,0.00
2012-4-29,54.4,42.6,25.7,31.3,25.4,18.2,97,56,25,30.38,30.13,8,4,11,0.00
2012-4-30,51.7,46.0,41.1,44.2,40.6,31.3,99,82,56,30.13,29.90,14,5,19,0.20
2012-5-1,54.7,50.4,44.8,46.9,45.0,42.9,94,82,73,30.00,29.84,18,7,21,0.00
2012-5-2,71.5,55.0,45.2,61.3,51.9,43.6,100,90,70,29.87,29.65,14,6,18,0.40
2012-5-3,70.1,58.4,48.9,61.4,56.8,47.0,100,95,74,29.93,29.76,13,5,17,0.61
2012-5-4,61.2,53.2,45.5,54.2,46.2,41.0,100,78,56,30.09,29.88,18,9,24,0.00
2012-5-5,55.3,49.6,46.0,45.9,41.6,36.1,92,74,60,30.14,30.03,15,8,18,0.07
2012-5-6,50.7,47.3,43.5,46.7,42.0,34.8,93,82,57,30.11,29.96,12,6,17,0.30
2012-5-7,61.0,52.7,47.9,52.6,47.5,43.9,100,83,69,29.97,29.80,10,3,13,0.00
2012-5-8,61.6,51.3,46.5,52.7,49.3,45.4,100,94,67,29.85,29.75,8,2,9,0.02
2012-5-9,60.2,49.4,37.5,45.2,39.1,34.2,95,70,39,29.94,29.82,12,5,17,0.00
2012-5-10,64.5,51.4,33.5,43.9,39.1,32.0,100,67,31,29.99,29.91,14,4,18,0.00
2012-5-11,66.4,59.1,53.5,50.9,42.5,36.4,71,55,42,30.03,29.95,20,8,25,0.00
2012-5-12,63.5,56.2,40.5,50.6,38.7,26.2,81,55,27,30.26,30.04,12,5,15,0.00
2012-5-13,66.6,54.4,35.5,46.9,36.1,29.6,93,54,27,30.26,30.05,12,4,15,0.00
2012-5-14,78.6,65.7,52.3,47.3,41.4,27.9,64,43,27,30.05,29.85,13,5,18,0.00
2012-5-15,80.1,63.9,46.5,51.9,45.0,34.9,82,52,28,30.00,29.68,13,6,19,0.00
2012-5-16,60.4,47.8,34.4,42.8,37.1,30.4,98,69,33,30.14,30.01,9,3,12,0.00
2012-5-17,59.8,51.5,37.3,41.6,36.6,27.3,93,59,37,30.20,29.98,15,7,20,0.00
2012-5-18,65.6,58.9,50.7,49.3,43.6,38.2,81,58,42,30.00,29.92,17,10,20,0.00
2012-5-19,70.3,64.3,50.4,56.9,50.6,41.5,83,62,45,30.00,29.92,20,8,24,0.00
2012-5-20,72.0,65.1,55.7,64.7,54.7,50.2,83,69,54,29.96,29.79,21,10,25,0.02
2012-5-21,66.3,55.9,41.9,52.7,44.2,40.3,94,66,41,30.14,29.97,12,7,18,0.00
2012-5-22,65.2,52.2,35.6,48.0,40.4,35.3,99,69,36,30.13,29.92,7,2,8,0.00
2012-5-23,66.8,55.1,40.2,50.0,45.7,39.4,99,73,46,29.92,29.70,16,6,18,0.00
2012-5-24,69.3,62.1,51.4,56.3,50.8,45.8,91,68,47,29.72,29.48,22,14,31,0.00
2012-5-25,75.6,66.7,59.2,65.4,52.2,45.9,96,63,36,30.09,29.53,12,7,17,0.18
2012-5-26,64.2,56.8,51.0,58.1,50.7,44.8,97,80,66,30.20,30.02,10,3,12,0.05
2012-5-27,74.0,63.7,55.6,64.0,58.9,48.8,100,85,69,30.13,29.72,17,10,26,1.18
2012-5-28,79.2,67.7,56.2,66.9,60.9,54.5,95,80,61,29.72,29.57,17,6,21,0.02
2012-5-29,69.3,64.3,57.3,63.6,50.4,42.1,87,62,40,29.78,29.59,14,8,19,0.00
2012-5-30,56.7,49.6,40.6,51.1,44.5,39.7,99,83,69,30.00,29.77,8,4,13,0.00
2012-5-31,54.8,48.0,39.3,43.2,38.5,32.0,100,72,42,30.09,29.95,11,4,15,0.00
2012-6-1,56.5,51.9,46.1,47.0,43.4,39.5,86,73,60,29.95,29.68,10,5,13,0.00
2012-6-2,65.6,57.8,49.8,52.2,46.8,39.6,89,68,45,29.68,29.55,10,4,15,0.01
2012-6-3,76.7,61.1,49.8,53.0,48.6,44.9,96,65,39,29.83,29.63,8,4,10,0.00
2012-6-4,67.6,59.2,49.1,56.7,50.8,46.4,100,76,47,29.97,29.84,8,2,11,0.00
2012-6-5,66.6,58.2,48.2,55.1,49.8,45.4,100,76,49,30.09,29.97,7,3,10,0.00
2012-6-6,73.5,61.7,44.3,55.2,49.2,43.7,99,67,38,30.10,30.03,5,2,7,0.00
2012-6-7,79.4,66.6,51.1,58.9,51.2,42.5,92,60,27,30.09,29.96,10,3,15,0.00
2012-6-8,81.6,73.2,64.3,65.4,57.3,47.2,74,58,45,29.97,29.74,11,4,14,0.01
2012-6-9,89.0,77.0,61.5,61.1,57.8,54.9,79,53,34,29.80,29.72,11,7,18,0.00
2012-6-10,79.4,71.0,59.6,63.3,58.1,53.8,82,64,53,29.87,29.79,21,7,24,0.00
2012-6-11,75.8,69.2,62.7,65.0,60.6,52.5,89,74,53,29.79,29.66,17,7,22,0.00
2012-6-12,69.1,59.9,47.0,53.1,47.2,42.3,93,64,41,30.15,29.75,12,7,20,0.00
2012-6-13,62.3,53.9,40.3,51.1,44.6,39.8,100,74,46,30.22,30.11,13,5,14,0.00
2012-6-14,68.9,59.5,48.5,53.3,49.3,41.8,97,71,38,30.16,29.99,15,6,18,0.00
2012-6-15,73.5,66.4,59.3,59.4,53.8,47.7,82,65,49,30.04,29.93,16,9,19,0.00
2012-6-16,74.9,66.4,62.7,65.5,58.5,52.2,100,77,55,30.02,29.73,15,6,18,0.07
2012-6-17,80.5,70.5,62.1,67.2,56.6,48.7,100,64,33,29.80,29.69,10,6,16,0.00
2012-6-18,71.6,65.7,59.5,71.6,62.9,55.6,100,91,69,29.72,29.48,22,9,27,1.11
2012-6-19,80.1,71.1,65.3,71.4,67.0,61.3,99,88,67,29.86,29.68,15,6,18,0.23
2012-6-20,83.6,72.7,61.2,71.1,65.0,59.5,95,77,65,29.85,29.70,18,8,32,0.05
2012-6-21,78.3,70.9,60.7,68.8,62.0,54.2,100,76,44,29.90,29.70,11,5,14,0.14
2012-6-22,71.3,64.4,52.6,58.4,54.6,50.6,96,72,54,29.99,29.90,10,2,13,0.00
2012-6-23,71.6,61.5,48.5,58.4,54.1,48.5,100,78,57,30.02,29.96,9,3,11,0.00
2012-6-24,74.9,67.0,51.1,66.6,57.5,45.1,99,72,56,30.07,29.92,10,4,12,0.18
2012-6-25,69.1,60.4,47.3,53.2,48.6,44.3,95,67,44,30.15,30.06,10,3,16,0.00
2012-6-26,73.0,61.6,46.1,58.3,50.3,45.0,100,71,37,30.08,29.89,11,4,13,0.00
2012-6-27,73.0,65.5,56.2,62.1,58.7,55.2,100,80,61,29.90,29.68,18,7,22,0.00
2012-6-28,87.0,75.7,61.0,73.6,66.7,59.2,98,75,53,29.77,29.66,7,3,11,0.00
2012-6-29,85.5,76.9,67.1,63.2,59.3,52.0,78,56,35,29.81,29.68,10,5,13,0.00
2012-6-30,86.7,77.1,69.1,62.9,59.4,54.8,78,56,34,29.81,29.69,7,4,10,0.00
2012-7-1,83.6,72.6,56.7,63.2,58.5,53.1,98,64,35,29.94,29.82,10,2,10,0.00
2012-7-2,82.8,74.5,61.3,69.9,60.4,53.0,82,63,45,29.97,29.79,11,4,14,0.00
2012-7-3,89.3,76.2,68.1,72.2,68.0,64.5,100,78,48,29.85,29.70,14,5,18,0.27
2012-7-4,87.2,77.4,68.6,75.2,71.5,65.1,100,83,58,29.91,29.71,14,3,14,0.74
2012-7-5,90.7,79.4,68.4,77.6,71.9,65.8,99,79,62,29.87,29.78,7,3,12,0.00
2012-7-6,84.5,75.6,62.9,73.5,64.7,58.6,99,71,43,29.95,29.85,9,2,9,0.00
2012-7-7,79.6,70.3,62.6,67.1,62.2,59.7,97,77,52,30.05,29.88,12,4,16,0.01
2012-7-8,79.6,69.3,57.0,67.1,60.4,57.0,100,76,51,30.08,29.97,9,2,13,0.00
2012-7-9,74.6,66.9,56.9,65.3,60.3,56.9,100,81,59,30.08,30.02,7,2,10,0.01
2012-7-10,75.4,66.3,56.2,63.3,58.7,52.7,100,79,46,30.15,30.08,6,2,9,0.01
2012-7-11,80.3,68.5,50.8,63.3,55.3,50.0,100,68,35,30.16,30.06,9,3,13,0.00
2012-7-12,81.8,70.1,53.1,64.2,58.6,52.6,99,70,40,30.10,30.01,9,3,12,0.00
2012-7-13,83.0,73.1,59.9,70.6,66.1,56.8,100,80,50,30.04,29.94,13,4,14,0.00
2012-7-14,86.1,77.1,70.4,71.2,67.5,61.3,97,73,44,29.97,29.88,12,5,14,0.00
2012-7-15,84.5,76.0,69.4,71.3,69.4,66.2,100,81,57,29.97,29.89,6,3,11,0.00
2012-7-16,96.8,83.2,70.1,72.1,67.1,61.5,93,61,32,29.94,29.64,13,4,19,0.00
2012-7-17,86.3,78.3,68.3,71.7,67.7,63.3,87,71,48,29.88,29.65,10,6,14,0.01
2012-7-18,77.4,70.9,64.3,66.1,64.2,61.8,99,80,59,29.97,29.87,10,4,12,0.14
2012-7-19,71.8,66.7,62.1,67.5,62.7,57.7,100,87,69,30.05,29.86,12,7,14,1.56
2012-7-20,77.4,68.0,55.9,64.7,57.7,49.3,100,73,40,30.13,30.01,7,2,11,0.01
2012-7-21,88.2,74.2,64.8,75.1,65.8,55.2,100,77,53,30.03,29.88,9,4,17,0.46
2012-7-22,82.0,75.0,64.3,72.8,68.8,63.3,99,82,67,30.00,29.86,9,3,11,0.00
2012-7-23,92.3,82.2,72.1,73.4,67.9,61.3,86,65,37,29.88,29.75,10,5,13,0.00
2012-7-24,78.1,70.4,60.2,66.9,63.7,60.2,100,81,58,29.98,29.88,7,2,10,0.00
2012-7-25,81.4,72.9,59.2,74.3,68.9,59.2,100,88,77,29.92,29.48,18,5,21,0.25
2012-7-26,76.1,70.9,63.2,72.1,67.3,63.2,100,89,73,29.74,29.54,7,3,11,0.04
2012-7-27,74.2,68.4,62.1,65.7,63.9,59.6,100,86,62,30.02,29.71,11,5,18,0.04
2012-7-28,77.7,66.4,56.0,61.9,56.5,37.6,100,75,25,30.12,30.02,6,2,8,0.00
2012-7-29,82.0,70.5,56.3,69.5,64.0,56.3,100,82,51,30.06,29.90,10,3,12,0.00
2012-7-30,81.8,73.7,66.6,71.2,67.7,65.4,100,82,65,29.93,29.68,18,6,19,0.91
2012-7-31,78.8,70.0,61.2,68.9,64.2,60.7,100,83,54,29.92,29.80,7,3,10,0.01
2012-8-1,79.9,70.8,59.8,70.1,65.8,57.6,100,85,47,29.92,29.73,11,4,16,0.01
2012-8-2,84.0,75.8,69.3,70.2,68.3,66.2,96,78,57,29.84,29.67,10,4,12,0.07
2012-8-3,78.3,71.8,66.3,71.2,68.3,63.0,100,89,76,29.92,29.84,11,5,12,0.01
2012-8-4,86.7,74.3,68.9,74.4,70.9,65.9,100,90,51,29.90,29.74,8,3,12,0.13
2012-8-5,75.3,68.1,56.7,68.5,55.2,45.1,97,66,35,30.08,29.77,12,6,17,0.00
2012-8-6,79.9,68.8,55.1,64.3,57.0,52.3,100,69,41,30.09,29.89,9,3,14,0.00
2012-8-7,79.8,71.4,63.1,67.0,60.7,55.0,82,70,49,29.98,29.86,9,4,13,0.00
2012-8-8,73.3,65.5,55.6,61.9,57.4,53.5,98,76,57,30.03,29.97,7,2,13,0.00
2012-8-9,67.4,62.7,59.5,61.8,59.5,56.6,100,90,77,29.98,29.93,8,4,11,0.29
2012-8-10,69.1,63.8,60.1,59.9,53.6,48.0,96,71,47,29.97,29.92,15,8,24,0.00
2012-8-11,76.1,66.0,53.8,56.3,53.4,49.8,91,66,41,29.96,29.89,15,7,21,0.00
2012-8-12,72.3,62.9,48.9,64.2,57.1,48.9,100,83,57,29.98,29.91,7,2,11,0.00
2012-8-13,75.4,66.6,59.0,64.3,60.0,53.5,97,80,47,29.92,29.86,5,1,7,0.00
2012-8-14,77.6,66.4,54.2,64.8,56.9,50.6,100,75,40,29.89,29.84,7,2,10,0.00
2012-8-15,74.6,66.8,54.4,68.9,62.1,54.4,100,86,63,29.90,29.79,10,4,12,0.00
2012-8-16,73.2,68.8,62.6,68.5,62.3,54.4,99,81,56,29.81,29.62,11,6,16,0.55
2012-8-17,72.0,62.4,50.4,55.6,48.9,37.6,87,64,29,29.97,29.82,12,6,16,0.00
2012-8-18,73.2,61.5,45.7,56.1,50.2,45.2,100,70,42,29.98,29.88,7,2,16,0.00
2012-8-19,69.1,61.5,50.8,56.3,52.6,48.0,100,75,49,29.95,29.91,7,2,8,0.00
2012-8-20,72.8,60.6,46.8,59.2,50.7,45.2,100,74,39,29.96,29.91,8,2,11,0.00
2012-8-21,78.3,66.4,52.8,62.0,56.3,52.0,100,73,41,30.01,29.95,7,2,11,0.00
2012-8-22,80.9,70.2,61.2,62.3,56.0,49.8,84,63,35,30.03,29.96,13,6,17,0.00
2012-8-23,81.6,71.0,61.8,67.0,63.0,57.5,89,77,52,30.00,29.91,11,4,13,0.00
2012-8-24,76.5,72.5,68.9,67.8,64.0,61.2,87,75,63,29.96,29.90,15,7,17,0.00
2012-8-25,82.2,74.2,61.8,70.6,64.4,60.9,99,73,54,29.98,29.92,10,5,13,0.00
2012-8-26,72.8,69.9,67.3,69.5,66.8,63.8,100,90,77,30.00,29.90,14,3,16,0.11
2012-8-27,80.9,71.3,61.8,68.6,62.1,54.3,100,76,41,30.07,29.93,9,3,10,0.01
2012-8-28,74.0,64.5,53.2,63.3,59.1,53.2,100,84,60,30.13,30.04,7,2,11,0.00
2012-8-29,76.8,66.4,51.6,67.6,59.7,51.6,100,81,60,30.07,29.92,13,6,18,0.00
2012-8-30,83.4,74.4,66.3,67.5,63.1,53.1,80,68,54,29.92,29.76,16,8,19,0.00
2012-8-31,80.9,73.6,56.3,67.2,57.5,46.9,91,60,31,30.10,29.80,8,4,14,0.00
2012-9-1,76.0,64.8,50.4,62.9,55.3,49.9,99,74,43,30.16,30.04,15,5,18,0.00
2012-9-2,78.1,68.8,61.0,62.5,59.4,53.8,96,74,46,30.05,29.92,8,4,11,0.00
2012-9-3,80.3,72.5,60.2,70.5,67.5,59.5,100,85,69,29.93,29.83,10,4,12,0.05
2012-9-4,77.6,70.4,65.2,70.6,68.3,65.2,100,94,73,29.87,29.75,9,2,12,0.02
2012-9-5,80.9,69.4,57.0,70.0,62.0,55.5,100,80,42,29.79,29.70,10,3,14,0.00
2012-9-6,79.2,66.6,53.9,64.3,55.1,46.3,100,72,32,29.90,29.79,8,3,14,0.00
2012-9-7,67.4,60.8,56.3,61.5,57.5,54.1,100,89,64,29.90,29.80,7,2,8,0.38
2012-9-8,67.3,60.2,55.1,54.0,51.0,45.6,91,73,46,29.83,29.73,11,6,14,0.00
2012-9-9,70.1,59.6,49.8,54.0,50.3,44.0,97,74,39,30.11,29.84,9,3,14,0.00
2012-9-10,73.9,61.7,45.5,59.3,52.7,45.5,100,76,42,30.16,29.99,16,6,22,0.00
2012-9-11,75.8,67.8,59.5,64.4,57.7,50.8,84,70,53,30.00,29.89,19,10,31,0.00
2012-9-12,80.9,69.3,54.8,62.9,54.2,35.5,94,61,29,30.16,29.93,11,5,13,0.06
2012-9-13,62.0,57.3,50.4,55.2,50.3,45.5,98,78,56,30.28,30.14,9,2,11,0.04
2012-9-14,69.1,57.9,47.6,54.6,46.3,38.8,100,71,35,30.28,30.23,8,2,11,0.00
2012-9-15,66.9,57.6,42.1,57.5,51.9,42.1,100,82,62,30.31,30.02,9,4,12,0.00
2012-9-16,77.7,67.1,60.4,56.2,49.6,45.2,77,55,32,30.02,29.85,14,6,22,0.00
2012-9-17,65.2,59.6,51.3,56.2,52.1,48.2,97,77,60,29.84,29.74,9,4,13,0.16
2012-9-18,55.3,50.1,44.5,48.2,39.9,29.1,89,69,38,29.96,29.78,12,7,18,0.03
2012-9-19,64.2,51.7,37.5,54.6,42.9,32.6,99,74,48,29.98,29.59,23,9,30,0.22
2012-9-20,61.2,51.9,45.5,48.6,46.5,44.1,99,83,56,29.85,29.71,10,4,14,0.03
2012-9-21,59.6,50.8,44.3,48.8,43.5,40.6,100,78,51,29.84,29.73,10,3,17,0.03
2012-9-22,58.1,48.4,35.5,45.4,38.1,29.8,100,70,40,30.09,29.72,13,6,20,0.00
2012-9-23,53.3,45.7,35.5,40.6,36.8,33.9,97,72,49,30.17,30.09,8,4,12,0.00
2012-9-24,68.8,54.6,34.7,45.6,36.1,30.3,99,55,28,30.13,29.66,17,7,25,0.00
2012-9-25,60.7,52.6,45.5,48.6,45.6,43.3,95,78,55,29.91,29.76,11,4,16,0.00
2012-9-26,58.6,50.1,39.6,45.6,41.6,34.4,100,75,41,30.20,29.92,8,3,12,0.00
2012-9-27,58.4,47.8,36.6,44.4,41.0,36.1,99,79,57,30.29,30.19,8,3,12,0.00
2012-9-28,67.6,50.3,34.1,48.8,41.5,33.8,100,76,34,30.19,30.06,6,2,8,0.00
2012-9-29,66.9,54.9,44.8,56.6,47.5,41.8,100,79,43,30.06,30.00,9,2,13,0.00
2012-9-30,60.2,50.7,39.1,53.9,47.3,38.8,100,89,65,30.02,29.95,7,2,8,0.00
2012-10-1,64.8,50.8,35.3,53.1,44.1,35.3,100,80,49,29.95,29.82,9,3,12,0.01
2012-10-2,62.7,53.1,42.3,53.9,49.6,42.3,100,89,66,29.94,29.83,8,2,9,0.00
2012-10-3,69.3,54.0,40.9,60.1,51.6,40.9,100,93,62,29.98,29.93,6,1,8,0.01
2012-10-4,69.6,58.0,46.8,58.9,49.1,33.2,100,75,45,29.96,29.80,15,6,18,0.00
2012-10-5,51.3,45.6,40.8,34.2,29.9,24.4,66,54,43,29.98,29.89,14,10,20,0.00
2012-10-6,47.0,42.5,39.2,32.6,29.7,26.3,75,61,47,30.15,29.91,11,8,17,0.00
2012-10-7,49.9,42.4,35.0,31.4,24.8,18.2,74,51,29,30.14,30.02,8,4,13,0.00
2012-10-8,58.0,48.2,36.6,43.2,31.8,22.5,67,54,31,30.02,29.78,22,12,37,0.00
2012-10-9,53.8,46.9,40.8,46.8,41.1,33.7,99,82,47,29.79,29.70,15,7,21,0.60
2012-10-10,45.5,40.1,33.7,38.2,28.2,20.1,87,64,38,30.07,29.77,12,7,18,0.00
2012-10-11,50.2,44.7,37.5,36.4,30.2,23.8,72,57,41,30.27,29.86,16,8,24,0.01
2012-10-12,46.8,40.3,29.4,36.5,29.3,16.2,94,67,29,30.46,30.26,13,4,15,0.00
2012-10-13,50.2,47.1,42.3,50.2,45.7,35.5,100,95,72,30.26,29.73,15,6,21,1.10
2012-10-14,50.2,48.2,44.6,50.2,47.5,41.6,100,98,88,29.76,29.43,16,9,21,1.00
2012-10-15,48.9,42.5,31.5,41.2,36.6,31.3,100,80,60,29.94,29.64,14,7,16,0.09
2012-10-16,53.2,47.8,33.8,49.5,45.5,33.8,100,92,79,29.92,29.50,20,8,25,0.02
2012-10-17,58.3,53.1,47.6,54.1,50.3,46.7,100,90,77,29.50,29.27,18,9,24,0.18
2012-10-18,54.7,48.8,43.2,54.5,47.4,40.6,100,95,83,29.48,29.10,16,8,20,0.20
2012-10-19,49.1,45.6,42.6,46.0,44.2,41.3,100,95,83,29.58,29.47,7,3,10,0.37
2012-10-20,57.0,47.8,39.3,48.6,44.6,39.2,100,90,59,29.87,29.57,8,2,8,0.01
2012-10-21,56.0,50.9,41.3,47.8,45.5,41.3,100,83,61,30.00,29.87,14,6,16,0.00
2012-10-22,59.9,51.8,41.1,53.4,49.0,41.1,100,91,74,30.00,29.93,9,4,13,0.00
2012-10-23,57.8,55.2,50.8,57.8,54.5,48.6,100,97,85,29.94,29.87,9,5,12,0.03
2012-10-24,62.7,56.2,54.4,60.6,56.0,54.4,100,99,93,29.89,29.74,14,7,18,0.01
2012-10-25,62.7,55.7,42.9,60.6,53.6,36.6,99,93,77,29.92,29.50,21,15,31,0.43
2012-10-26,45.5,40.4,37.0,38.2,29.5,25.1,88,65,51,30.31,29.93,13,7,18,0.01
2012-10-27,42.2,35.1,27.8,28.1,23.0,18.0,88,63,38,30.34,30.29,9,2,11,0.00
2012-10-28,45.7,35.6,27.2,29.5,25.4,21.7,85,67,49,30.39,30.33,9,3,16,0.00
2012-10-29,45.8,39.1,30.7,35.5,29.0,24.5,89,68,49,30.36,30.12,13,7,19,0.00
2012-10-30,41.8,39.3,36.3,31.6,28.6,22.6,82,66,49,30.12,29.80,18,15,26,0.00
2012-10-31,44.3,38.8,33.1,32.8,31.2,27.0,82,74,62,29.81,29.75,16,12,25,0.00
2012-11-1,46.2,39.3,33.1,32.9,27.5,21.1,81,63,38,29.90,29.77,12,9,20,0.00
2012-11-2,39.5,36.2,31.5,28.4,26.8,24.3,82,69,58,30.18,29.90,12,7,20,0.00
2012-11-3,39.2,35.4,32.2,32.5,29.5,26.4,98,80,67,30.25,30.19,8,3,9,0.00
2012-11-4,38.0,35.7,33.4,31.9,29.0,26.7,93,77,66,30.27,30.22,7,3,11,0.00
2012-11-5,38.5,34.2,26.4,30.6,26.6,23.9,92,74,64,30.26,30.11,8,3,11,0.00
2012-11-6,43.1,36.4,25.4,39.0,31.3,23.4,99,82,64,30.10,29.88,13,3,15,0.22
2012-11-7,42.5,41.4,39.9,40.3,37.8,35.8,97,87,81,30.13,29.93,8,4,13,0.00
2012-11-8,45.2,40.4,36.2,37.8,35.0,32.5,95,82,61,30.16,30.02,12,5,14,0.00
2012-11-9,48.3,44.2,36.9,43.3,40.1,34.0,89,86,81,30.12,30.05,10,4,12,0.00
2012-11-10,53.5,49.1,44.9,51.8,46.2,41.8,98,90,82,30.09,29.74,14,8,18,0.07
2012-11-11,55.4,52.7,39.8,53.0,49.4,38.2,100,89,80,29.79,29.61,22,13,28,0.39
2012-11-12,39.2,29.0,26.1,37.6,20.9,14.5,95,72,59,30.23,29.77,14,10,24,0.00
2012-11-13,37.0,30.0,25.0,23.1,20.1,15.1,75,67,52,30.45,30.24,9,5,12,0.00
2012-11-14,43.2,38.2,29.7,36.4,30.0,21.5,80,72,63,30.47,30.31,18,9,25,0.00
2012-11-15,47.9,40.8,36.8,38.0,32.9,28.9,90,74,63,30.34,30.22,10,6,13,0.00
2012-11-16,41.6,34.4,24.7,34.8,27.9,22.7,94,78,55,30.52,30.35,9,3,13,0.00
2012-11-17,48.5,37.0,23.3,41.5,33.2,22.1,100,87,65,30.52,30.44,13,4,16,0.00
2012-11-18,49.4,44.5,40.3,45.6,41.9,39.7,100,91,78,30.43,30.29,14,6,22,0.00
2012-11-19,50.4,46.2,43.1,45.2,43.5,40.5,96,90,81,30.29,30.07,11,6,16,0.00
2012-11-20,52.6,44.3,32.8,46.4,42.5,32.8,100,94,78,30.15,30.05,5,1,6,0.00
2012-11-21,50.2,43.5,37.5,48.2,42.5,37.5,100,96,83,30.15,29.92,19,7,25,0.00
2012-11-22,54.8,48.5,41.3,47.0,43.3,36.0,98,83,68,29.92,29.53,18,10,24,0.00
2012-11-23,43.2,31.6,28.1,35.5,20.7,15.1,75,64,52,30.12,29.57,20,14,26,0.00
2012-11-24,28.8,26.1,23.6,21.7,14.9,12.8,88,62,55,30.20,29.93,14,6,22,0.00
2012-11-25,32.5,28.6,24.5,25.7,22.0,13.2,97,77,53,30.05,29.80,11,6,16,0.08
2012-11-26,27.5,25.3,19.2,19.0,14.7,10.4,74,64,52,30.35,30.05,10,5,16,0.00
2012-11-27,30.3,23.4,14.0,24.1,14.2,9.3,90,68,53,30.35,30.14,11,5,13,0.00
2012-11-28,34.0,28.9,26.3,23.6,18.5,14.9,74,65,55,30.30,30.14,10,5,17,0.00
2012-11-29,36.9,34.1,30.4,31.4,27.1,23.3,87,76,64,30.23,30.15,15,6,17,0.00
2012-11-30,37.6,35.1,33.2,34.4,31.7,30.2,91,87,84,30.26,30.20,14,7,18,0.00
2012-12-1,50.2,41.4,37.5,50.2,40.1,34.3,100,95,88,30.22,29.78,14,8,18,0.01
2012-12-2,49.6,43.5,39.9,49.6,41.0,36.5,100,91,82,30.07,29.77,7,3,10,0.00
2012-12-3,56.9,47.6,41.2,56.9,46.7,38.5,100,97,78,30.05,29.61,21,11,26,0.00
2012-12-4,48.9,39.5,25.8,42.7,27.2,12.1,80,62,44,30.30,29.76,15,9,18,0.00
2012-12-5,35.9,29.6,24.8,29.9,21.1,14.1,79,70,61,30.45,30.21,11,5,13,0.00
2012-12-6,41.9,39.6,35.5,38.4,35.1,29.7,95,84,79,30.20,29.82,27,11,34,0.02
2012-12-7,37.0,34.2,32.2,32.6,27.6,24.8,84,77,68,30.01,29.86,9,4,11,0.00
2012-12-8,36.0,30.3,23.0,28.1,23.9,18.6,91,77,57,30.21,29.97,7,4,10,0.00
2012-12-9,34.1,31.5,22.4,32.6,28.1,18.8,100,88,67,30.20,29.72,11,7,14,0.14
2012-12-10,31.0,27.8,25.4,31.0,24.8,21.3,100,89,78,29.92,29.70,9,4,12,0.02
2012-12-11,27.2,25.4,23.8,23.1,20.4,17.4,92,81,68,30.04,29.85,13,5,19,0.00
2012-12-12,39.9,30.1,17.8,32.6,23.4,14.8,89,76,63,30.23,30.05,21,8,24,0.00
2012-12-13,41.3,36.1,29.8,28.8,25.6,23.8,82,66,52,30.13,30.01,13,6,20,0.00
2012-12-14,38.3,33.2,24.7,35.2,29.9,22.5,97,88,79,30.24,30.08,7,3,11,0.00
2012-12-15,41.8,39.6,37.9,41.8,37.5,34.5,100,92,82,30.07,29.52,12,9,17,0.37
2012-12-16,42.2,40.2,36.9,42.2,39.6,34.3,100,98,88,29.63,29.50,6,3,10,0.00
2012-12-17,36.6,32.8,28.1,34.2,28.7,23.6,91,85,79,29.72,29.63,7,4,11,0.00
2012-12-18,33.5,30.3,27.0,27.3,24.6,22.1,84,79,69,29.80,29.70,5,1,6,0.00
2012-12-19,32.5,29.5,22.9,27.2,25.0,21.5,96,83,74,30.09,29.81,8,2,10,0.00
2012-12-20,34.7,32.7,30.0,34.6,31.9,25.8,100,97,84,30.00,29.32,20,12,26,0.54
2012-12-21,31.5,28.1,24.1,31.5,23.5,17.0,100,83,74,30.11,29.44,20,14,26,0.01
2012-12-22,27.5,23.3,20.0,18.5,16.4,12.9,86,75,60,30.14,29.93,11,4,11,0.00
2012-12-23,26.7,21.4,9.7,21.7,15.1,6.9,90,77,63,30.08,29.92,11,5,14,0.00
2012-12-24,25.0,21.7,11.6,21.6,18.3,9.0,92,87,79,30.15,29.98,8,3,12,0.02
2012-12-25,27.8,22.5,18.6,20.4,16.6,13.8,86,78,69,30.41,30.15,7,5,10,0.00
2012-12-26,27.6,25.5,20.8,20.6,18.9,16.2,83,76,68,30.36,30.16,14,8,18,0.00
2012-12-27,26.9,24.9,21.0,21.0,19.1,17.2,86,78,74,30.23,30.16,9,4,12,0.00
2012-12-28,27.2,24.8,21.0,25.1,21.5,17.8,97,87,75,30.17,29.94,9,4,10,0.00
2012-12-29,29.1,26.2,23.3,25.8,22.6,17.7,98,86,72,30.10,29.92,8,5,13,0.01
2012-12-30,22.9,18.4,14.0,17.4,12.4,8.2,83,77,70,30.24,29.94,8,5,10,0.00
2012-12-31,28.4,21.5,14.4,21.9,13.4,4.4,91,71,57,30.15,29.88,11,6,13,0.00
2013-1-1,16.5,13.3,10.5,7.3,4.7,0.2,78,68,60,30.22,30.08,8,5,12,0.00